Regional Weather Roundup
Issued by NWS Cleveland, OH

Home | Current Version | Previous Version | Text Only | Print | Product List | Glossary Off
Versions: 1 2 3 4 5 6 7 8 9 10 11 12 13 14 15 16 17 18 19 20 21 22 23 24 25 26 27 28 29 30 31 32 33 34 35 36 37 38 39 40 41 42 43 44 45 46 47 48 49 50

000
ASUS41 KCLE 242302
RWRCLE
OHIO REGIONAL WEATHER ROUNDUP
NATIONAL WEATHER SERVICE CLEVELAND, OH
700 PM EDT FRI OCT 24 2014

NOTE: "FAIR" INDICATES FEW OR NO CLOUDS BELOW 12,000 FEET WITH NO
SIGNIFICANT WEATHER AND/OR OBSTRUCTIONS TO VISIBILITY.

OHZ001>008-015>018-024>027-034-035-043-044-250000-
   NORTHWEST OHIO

CITY           SKY/WX    TMP DP  RH WIND       PRES   REMARKS
DEFIANCE       MOCLDY    57  47  69 CALM      30.00S
FINDLAY        CLOUDY    60  46  59 W5        30.00R
TOLEDO EXPRESS PTCLDY    53  45  74 CALM      30.00S
TOLEDO EXEC    CLOUDY    57  45  64 SW5       30.00S HAZE
LIMA           PTCLDY    58  44  60 CALM      30.01R
$$

OHZ009>014-019>023-028>033-038-089-250000-
   NORTHEAST OHIO

CITY           SKY/WX    TMP DP  RH WIND       PRES   REMARKS
CLE-HOPKINS    CLOUDY    56  45  66 CALM      30.02R
CLE-LAKEFRONT  MOCLDY    56  45  66 CALM      29.99S
CUY CO. ARPT   PTCLDY    50  46  87 CALM      30.00F
LORAIN-ELYRIA  CLOUDY    56  47  71 CALM      30.00S
ASHTABULA      CLEAR     50  42  74 CALM      30.00S
AKRON-CANTON   PTCLDY    56  39  53 SW3       30.00S
WOOSTER        CLOUDY    59  39  47 SW3       30.00F
MANSFIELD      CLOUDY    57  40  52 W3        30.01F
YOUNGSTOWN     PTCLDY    53  39  59 W3        30.00R
$$

OHZ042-051>053-060>062-070>072-077>081-250000-
  SOUTHWEST OHIO

CITY           SKY/WX    TMP DP  RH WIND       PRES   REMARKS
CINC-COVINGTON MOCLDY    58  38  47 S5        30.03F
CINC-LUNKEN    CLEAR     53  44  71 CALM      30.04S
HAMILTON       NOT AVBL
DAYTON         MOCLDY    60  39  45 S6        30.03S
WRIGHT-PAT AFB CLEAR     55  40  59 S6        30.02S
DAYTON GENERAL CLEAR     57  40  52 S5        30.02F
WILMINGTON     CLEAR     56  38  50 S5        30.03S
$$

OHZ036-037-039>041-045>050-054>059-063>069-073>076-082>088-250000-
  CENTRAL AND SOUTHEAST OHIO

CITY           SKY/WX    TMP DP  RH WIND       PRES   REMARKS
COLUMBUS       CLEAR     60  34  37 S3        30.01F
OSU AIRPORT    CLEAR     60  35  39 S6        30.00F
BOLTON FIELD   CLEAR     55  36  47 S5        30.02F
RICKENBACK AFB NOT AVBL
NEWARK         CLEAR     53  41  63 CALM      30.02S
MARION         CLEAR     56  39  53 W3        30.01R
LANCASTER      CLEAR     51  39  63 CALM      30.03R
ZANESVILLE     CLEAR     56  38  50 CALM      30.03R
NEW PHILLY     CLEAR     54  41  61 CALM      30.02R
$$



USA.gov is the U.S. government's official web portal to all federal, state and local government web resources and services.